[[{"header":{"parameterUnit":"m.s-1","parameterCategory":1,"la1":30.2991,"la2":30.254,"lo1":-89.0895,"lo2":-89.0444,"dy":0.0017,"dx":0.0017,"nx":28,"ny":28,"refTime":"2024-12-07T03:00:00:Z","depth":0,"parameterNumber":2,"parameterNumberName":"U-component_of_WINDS"},"data":[0,0,0,0,0,0,0,0,0,0,0,0,0,0,0,0,0,0,0,0,0,0,0,0,0,0,0,0,0,0,0,0,0,0,0,0,0,0,0,0,0,0,0,0,0,0,0,0,0,0,0,0,0,0,0,0,0,0,-3.2788,-3.2788,0,-3.2844,-3.2844,-3.2845,-3.2708,-3.2704,-3.27,-3.2695,-3.2755,-3.276,-3.2766,0,0,0,0,0,0,0,0,0,0,0,0,0,-3.2564,-3.2569,-3.2788,-3.2789,-3.2789,-3.2843,-3.2844,-3.2845,-3.2709,-3.2704,-3.2698,-3.2693,-3.2753,-3.2759,-3.2766,0,0,0,0,0,0,0,0,0,0,0,0,0,-3.2645,-3.2571,-3.2788,-3.2728,-3.2723,-3.2843,-3.2844,-3.2845,-3.271,-3.2704,-3.2697,-3.2691,-3.2751,-3.2759,-3.2767,-3.2949,0,0,-3.2793,-3.2797,0,0,0,0,0,0,0,0,-3.2641,-3.2653,-3.2736,-3.2732,-3.2727,-3.2762,-3.2787,-3.288,-3.2712,-3.2715,-3.2695,-3.2688,-3.2763,-3.277,-3.2794,-3.2952,-3.2954,-3.2794,-3.2799,-3.2802,-3.2805,0,0,0,0,0,0,0,-3.2635,-3.265,-3.281,-3.2737,-3.2732,-3.2698,-3.2703,-3.2804,-3.2775,-3.2714,-3.2704,-3.2713,-3.2759,-3.2787,-3.2795,-3.2955,-3.2793,-3.2801,-3.2806,-3.2809,-3.3264,-3.327,0,0,0,0,0,0,-3.2637,-3.2646,-3.2808,-3.2812,-3.2667,-3.2708,-3.2712,-3.2758,-3.2773,-3.2769,-3.2718,-3.2706,-3.2775,-3.2785,-3.2796,-3.301,-3.2802,-3.281,-3.2815,-3.3257,-3.3265,-3.3273,0,0,0,0,0,0,-3.2633,-3.2653,-3.2806,-3.2726,-3.2743,-3.2718,-3.277,-3.2762,-3.2789,-3.2776,-3.277,-3.2752,-3.2771,-3.2785,-3.2912,-3.3011,-3.2814,-3.2822,-3.3248,-3.3259,-3.3269,-3.344,0,0,0,0,0,0,-3.2627,-3.2652,-3.2721,-3.2729,-3.2748,-3.2921,-3.2776,-3.2768,-3.2804,-3.2789,-3.2806,-3.2803,-3.2767,-3.29,-3.292,-3.3019,-3.2828,-3.3239,-3.3253,-3.3266,-3.3426,-3.3455,-3.3481,0,0,0,0,0,-3.2619,-3.2767,-3.2725,-3.2745,-3.2833,-3.2927,-3.2938,-3.2892,-3.2813,-3.2882,-3.2873,-3.2802,-3.2996,-3.2914,-3.2936,-3.3038,-3.3233,-3.3249,-3.3265,-3.3413,-3.345,-3.348,0,0,0,0,0,0,-3.2773,-3.2767,-3.272,-3.2875,-3.2902,-3.2903,-3.2989,-3.2932,-3.2983,-3.2967,-3.2909,-3.2914,-3.3052,-3.3057,-3.2966,-3.3215,-3.3101,-3.3122,-3.3207,-3.3241,-3.3268,-3.3265,-3.2835,0,0,0,0,0,-3.2824,-3.29,-3.2891,-3.3029,-3.3045,-3.3015,-3.3054,-3.3016,-3.3042,-3.3054,-3.3054,-3.3082,-3.3149,-3.3195,-3.3256,-3.3425,-3.3427,-3.3506,-3.3533,-3.3556,-3.3575,-3.3665,-3.3701,-3.3325,-3.3325,-3.3324,0,0,-3.2932,-3.2939,-3.299,-3.306,-3.3076,-3.3157,-3.3026,-3.3116,-3.3175,-3.3067,-3.3188,-3.3189,-3.3217,-3.3366,-3.3431,-3.3374,-3.3679,-3.3576,-3.3594,-3.3601,-3.3685,-3.3721,-3.3753,-3.3335,-3.3333,-3.3332,0,0,-3.317,-3.3182,-3.3298,-3.3317,-3.3343,-3.3322,-3.335,-3.336,-3.3356,-3.3476,-3.3396,-3.3466,-3.3582,-3.3605,-3.3633,-3.3878,-3.3815,-3.3899,-3.4044,-3.4132,-3.4162,-3.4188,-3.4276,-3.4308,-3.3918,-3.3918,-3.3919,0,-3.3301,-3.3419,-3.3365,-3.3461,-3.3494,-3.3399,-3.3516,-3.3537,-3.3583,-3.3608,-3.3542,-3.3687,-3.3699,-3.3852,-3.3912,-3.3936,-3.3967,-3.3898,-3.4161,-3.4187,-3.4211,-3.4294,-3.4328,-3.3928,-3.3927,-3.3926,-3.3925,0,-3.3579,-3.3661,-3.3752,-3.3797,-3.384,-3.3947,-3.3909,-3.3959,-3.3918,-3.3904,-3.4026,-3.4037,-3.4098,-3.4131,-3.4092,-3.428,-3.4243,-3.4171,-3.4056,-3.4257,-3.4335,-3.4367,-3.3943,-3.3939,-3.3936,-3.3934,0,0,-3.3917,-3.393,-3.3965,-3.3984,-3.4005,-3.4068,-3.417,-3.4229,-3.4273,-3.4307,-3.4392,-3.4492,-3.4425,-3.4455,-3.4417,-3.4495,-3.4689,-3.4413,-3.4412,-3.4465,-3.4897,-3.4953,-3.4991,-3.4647,-3.4653,-3.4657,-3.4895,0,-3.4153,-3.4327,-3.4282,-3.4455,-3.4531,-3.4441,-3.4529,-3.4552,-3.4541,-3.4604,-3.4591,-3.4664,-3.4569,-3.4587,-3.4659,-3.4651,-3.4776,-3.4632,-3.4726,-3.473,-3.4724,-3.5031,-3.5091,-3.5315,-3.4925,-3.493,-3.4934,0,-3.4452,-3.4497,-3.4679,-3.4687,-3.4717,-3.4797,-3.4847,-3.4908,-3.4932,-3.4918,-3.4953,-3.4899,-3.4999,-3.4882,-3.5019,-3.4923,-3.4958,-3.4959,-3.4967,-3.4975,-3.4846,-3.505,-3.5385,-3.542,-3.4981,-3.4977,-3.4974,0,-3.4683,-3.4788,-3.491,-3.4929,-3.4942,-3.5,-3.5008,-3.5025,-3.5064,-3.5107,-3.5132,-3.5187,-3.5218,-3.5262,-3.5225,-3.5143,-3.5369,-3.5248,-3.5362,-3.5363,-3.5415,-3.5413,-3.5763,-3.5435,-3.5435,-3.5434,-3.5433,0,-3.4952,-3.5067,-3.5014,-3.5089,-3.5215,-3.5161,-3.5287,-3.5284,-3.53,-3.5374,-3.5298,-3.5369,-3.5314,-3.538,-3.5351,-3.547,-3.5484,-3.5477,-3.5468,-3.5485,-3.5486,-3.5508,-3.5493,-3.5443,-3.5441,-3.5439,-3.5438,0,-3.5232,-3.52,-3.5328,-3.5328,-3.5331,-3.5424,-3.5425,-3.5494,-3.5477,-3.5571,-3.559,-3.5563,-3.5637,-3.5603,-3.5681,-3.5661,-3.5815,-3.5784,-3.5807,-3.58,-3.5915,-3.5906,-3.6293,-3.6342,-3.5982,-3.5985,-3.5988,0,-3.5407,-3.5493,-3.5502,-3.5546,-3.5559,-3.563,-3.5668,-3.5617,-3.566,-3.5693,-3.576,-3.5826,-3.5877,-3.5999,-3.5987,-3.6046,-3.6017,-3.6149,-3.6026,-3.604,-3.6021,-3.6017,-3.6026,-3.6175,-3.6179,-3.6182,-3.6185,0,-3.5721,-3.5701,-3.5759,-3.5812,-3.586,-3.5899,-3.5932,-3.5972,-3.5922,-3.5974,-3.6048,-3.6088,-3.6166,-3.6234,-3.6285,-3.6293,-3.6232,-3.6223,-3.6253,-3.6272,-3.6282,-3.6279,-3.5876,-3.6215,-3.6212,-3.621,-3.6209,-3.6207,-3.5954,-3.6026,-3.6044,-3.6112,-3.613,-3.6163,-3.6228,-3.6219,-3.6279,-3.6339,-3.6305,-3.6392,-3.6412,-3.6474,-3.6491,-3.6558,-3.6506,-3.6549,-3.656,-3.6571,-3.6587,-3.627,-3.6567,-3.6566,-3.6565,-3.6564,-3.6564,0,-3.6266,-3.6272,-3.6334,-3.6382,-3.6435,-3.6371,-3.6404,-3.6453,-3.653,-3.6553,-3.6605,-3.669,-3.6754,-3.6747,-3.6806,-3.6862,-3.6835,-3.6879,-3.6876,-3.6879,-3.663,-3.6599,-3.69,-3.69,-3.6899,-3.6899,-3.6899,-3.6899,-3.6434,-3.6553,-3.6535,-3.6663,-3.6668,-3.6752,-3.6777,-3.6806,-3.6825,-3.6923,-3.6976,-3.697,-3.6982,-3.7041,-3.7098,-3.7093,-3.712,-3.7175,-3.7161,-3.6929,-3.6896,-3.6864,-3.6835,-3.718,-3.7181,-3.7404,-3.7406,-3.7407]},{"header":{"parameterUnit":"m.s-1","parameterCategory":1,"la1":30.2991,"la2":30.254,"lo1":-89.0895,"lo2":-89.0444,"dy":0.0017,"dx":0.0017,"nx":28,"ny":28,"refTime":"2024-12-07T03:00:00:Z","depth":0,"parameterNumber":3,"parameterNumberName":"V-component_of_WINDS"},"data":[0,0,0,0,0,0,0,0,0,0,0,0,0,0,0,0,0,0,0,0,0,0,0,0,0,0,0,0,0,0,0,0,0,0,0,0,0,0,0,0,0,0,0,0,0,0,0,0,0,0,0,0,0,0,0,0,0,0,-4.3251,-4.3251,0,-4.3282,-4.3283,-4.3283,-4.3236,-4.3234,-4.3232,-4.3231,-4.3261,-4.3263,-4.3266,0,0,0,0,0,0,0,0,0,0,0,0,0,-4.3146,-4.3148,-4.3251,-4.3251,-4.3251,-4.3282,-4.3283,-4.3283,-4.3236,-4.3234,-4.3232,-4.323,-4.326,-4.3263,-4.3266,0,0,0,0,0,0,0,0,0,0,0,0,0,-4.3186,-4.3149,-4.3251,-4.3232,-4.323,-4.3282,-4.3283,-4.3283,-4.3236,-4.3234,-4.3231,-4.3229,-4.3259,-4.3263,-4.3266,-4.3338,0,0,-4.3277,-4.3279,0,0,0,0,0,0,0,0,-4.3184,-4.319,-4.3234,-4.3233,-4.3232,-4.3252,-4.3257,-4.3301,-4.3237,-4.3234,-4.3231,-4.3228,-4.326,-4.3263,-4.3275,-4.3339,-4.334,-4.3277,-4.3279,-4.3281,-4.3282,0,0,0,0,0,0,0,-4.3181,-4.3188,-4.3263,-4.3235,-4.3233,-4.322,-4.3223,-4.3265,-4.326,-4.3234,-4.3231,-4.3235,-4.3259,-4.3271,-4.3275,-4.3341,-4.3277,-4.328,-4.3283,-4.3284,-4.3462,-4.3464,0,0,0,0,0,0,-4.3181,-4.3186,-4.3262,-4.3264,-4.3201,-4.3224,-4.3228,-4.3248,-4.326,-4.3259,-4.3237,-4.3233,-4.3267,-4.3271,-4.3276,-4.3358,-4.3281,-4.3284,-4.3286,-4.3459,-4.3462,-4.3465,0,0,0,0,0,0,-4.3179,-4.3188,-4.3261,-4.3224,-4.3232,-4.3229,-4.3252,-4.325,-4.3263,-4.3262,-4.3261,-4.3251,-4.3265,-4.3271,-4.3322,-4.3358,-4.3286,-4.3289,-4.3456,-4.346,-4.3464,-4.3524,0,0,0,0,0,0,-4.3176,-4.3188,-4.3216,-4.3225,-4.3235,-4.3308,-4.3255,-4.3253,-4.3269,-4.3263,-4.3275,-4.3274,-4.3263,-4.3317,-4.3325,-4.3362,-4.3292,-4.3453,-4.3458,-4.3463,-4.3518,-4.3529,-4.3538,0,0,0,0,0,-4.3172,-4.3232,-4.3217,-4.3227,-4.327,-4.331,-4.3315,-4.3302,-4.3272,-4.3299,-4.3299,-4.3274,-4.3353,-4.3323,-4.3332,-4.337,-4.345,-4.3456,-4.3462,-4.3514,-4.3527,-4.3538,0,0,0,0,0,0,-4.3226,-4.3232,-4.3217,-4.3281,-4.3295,-4.3302,-4.3336,-4.3316,-4.3339,-4.3333,-4.3315,-4.3318,-4.3372,-4.3376,-4.3342,-4.3438,-4.3397,-4.3405,-4.3433,-4.3445,-4.3455,-4.3452,-4.3295,0,0,0,0,0,-4.3246,-4.3279,-4.3282,-4.3338,-4.3346,-4.334,-4.3357,-4.3345,-4.3359,-4.3365,-4.3368,-4.3381,-4.3409,-4.3428,-4.3453,-4.3519,-4.3519,-4.3549,-4.3559,-4.3568,-4.3574,-4.3607,-4.3619,-4.3484,-4.3484,-4.3484,0,0,-4.3286,-4.3293,-4.3315,-4.3349,-4.3359,-4.3392,-4.3345,-4.3383,-4.3406,-4.337,-4.3418,-4.3421,-4.3435,-4.3493,-4.3518,-4.3498,-4.3612,-4.3575,-4.3582,-4.3584,-4.3614,-4.3627,-4.3638,-4.3488,-4.3488,-4.3487,0,0,-4.3376,-4.3386,-4.3432,-4.3443,-4.3458,-4.3453,-4.3464,-4.3473,-4.3474,-4.3522,-4.3494,-4.3522,-4.3571,-4.3581,-4.3592,-4.3684,-4.3661,-4.3693,-4.3744,-4.3776,-4.3787,-4.3796,-4.3826,-4.3838,-4.37,-4.37,-4.37,0,-4.3424,-4.3473,-4.3459,-4.3497,-4.3512,-4.3481,-4.3526,-4.3537,-4.356,-4.357,-4.3547,-4.3605,-4.3613,-4.3671,-4.3694,-4.3705,-4.3715,-4.3691,-4.3786,-4.3796,-4.3804,-4.3833,-4.3844,-4.3703,-4.3703,-4.3703,-4.3702,0,-4.353,-4.3564,-4.36,-4.3622,-4.3641,-4.3683,-4.3673,-4.3694,-4.368,-4.3678,-4.3725,-4.3733,-4.3758,-4.3772,-4.3759,-4.3828,-4.3815,-4.379,-4.3747,-4.3821,-4.3847,-4.3858,-4.3709,-4.3707,-4.3706,-4.3705,0,0,-4.3655,-4.3667,-4.368,-4.3688,-4.3702,-4.3728,-4.3768,-4.3793,-4.3809,-4.3826,-4.3857,-4.3899,-4.3875,-4.3888,-4.3876,-4.3905,-4.3973,-4.3875,-4.3875,-4.3891,-4.4047,-4.4064,-4.4077,-4.3959,-4.3961,-4.3963,-4.4045,0,-4.3742,-4.3811,-4.3798,-4.3865,-4.3895,-4.3865,-4.3899,-4.3911,-4.3909,-4.3933,-4.3931,-4.3959,-4.3927,-4.3934,-4.3961,-4.3959,-4.4004,-4.3954,-4.3986,-4.3987,-4.3982,-4.4091,-4.411,-4.4187,-4.4055,-4.4057,-4.4058,0,-4.3854,-4.3873,-4.3943,-4.3949,-4.3961,-4.3993,-4.4013,-4.4038,-4.4049,-4.4045,-4.4059,-4.4042,-4.408,-4.4038,-4.4089,-4.4055,-4.4068,-4.4069,-4.4071,-4.4072,-4.4026,-4.4093,-4.4212,-4.4223,-4.4075,-4.4074,-4.4072,0,-4.3934,-4.3979,-4.4025,-4.4034,-4.4043,-4.4065,-4.407,-4.4079,-4.4094,-4.4112,-4.4121,-4.4143,-4.4155,-4.4172,-4.416,-4.4132,-4.4212,-4.417,-4.4208,-4.4208,-4.4225,-4.4224,-4.4345,-4.4237,-4.4237,-4.4237,-4.4236,0,-4.4032,-4.4075,-4.4061,-4.409,-4.4136,-4.412,-4.4167,-4.4168,-4.4176,-4.4203,-4.4179,-4.4205,-4.4188,-4.4213,-4.4204,-4.4245,-4.4252,-4.4248,-4.4245,-4.4249,-4.425,-4.4256,-4.4249,-4.424,-4.4239,-4.4239,-4.4238,0,-4.413,-4.4122,-4.4171,-4.4175,-4.4177,-4.4211,-4.4214,-4.424,-4.4236,-4.427,-4.4277,-4.4271,-4.4298,-4.4288,-4.4317,-4.4311,-4.4364,-4.4355,-4.436,-4.4356,-4.4394,-4.439,-4.4522,-4.4538,-4.4422,-4.4423,-4.4424,0,-4.4192,-4.4224,-4.4231,-4.4248,-4.4254,-4.4281,-4.4296,-4.4281,-4.4298,-4.4312,-4.4335,-4.436,-4.4379,-4.4423,-4.442,-4.4442,-4.4431,-4.4476,-4.4434,-4.4437,-4.4429,-4.4426,-4.4428,-4.4484,-4.4486,-4.4487,-4.4488,0,-4.4302,-4.4296,-4.4318,-4.4339,-4.4357,-4.4373,-4.4387,-4.4401,-4.4387,-4.4406,-4.4433,-4.4448,-4.4477,-4.4501,-4.452,-4.4523,-4.4502,-4.4501,-4.451,-4.4514,-4.4515,-4.4512,-4.438,-4.4498,-4.4497,-4.4496,-4.4495,-4.4495,-4.4382,-4.4408,-4.4416,-4.4441,-4.445,-4.4463,-4.4486,-4.4485,-4.4507,-4.4529,-4.4519,-4.455,-4.4558,-4.4581,-4.4588,-4.4611,-4.4593,-4.4607,-4.4611,-4.4614,-4.4617,-4.4513,-4.4614,-4.4614,-4.4614,-4.4614,-4.4613,0,-4.4488,-4.4492,-4.4515,-4.4534,-4.4553,-4.4533,-4.4546,-4.4563,-4.459,-4.46,-4.4619,-4.4649,-4.4671,-4.467,-4.4691,-4.4709,-4.47,-4.4715,-4.4712,-4.4713,-4.4633,-4.4622,-4.4722,-4.4722,-4.4722,-4.4722,-4.4722,-4.4722,-4.4545,-4.4588,-4.4582,-4.4628,-4.4631,-4.4661,-4.467,-4.4681,-4.4688,-4.4722,-4.4741,-4.474,-4.4745,-4.4766,-4.4785,-4.4784,-4.4792,-4.481,-4.4805,-4.473,-4.4719,-4.4709,-4.4698,-4.4812,-4.4812,-4.4882,-4.4883,-4.4884]}]]